Find Starlink 4692

NORAD ID: 53603 • Int'l Des: 2022-104 • Owner: SPXS • Country: US • Constellation: starlink • operational
LEOCIRCULAR

現在のビュー

3D地球を読み込み中...

About Starlink 4692

Starlink 4692 (NORAD 53603) is a starlink constellation satellite (v1.5) launched Aug 28, 2022 by SPXS of US. It operates in LEO, CIRCULAR orbit with a mass of 300.00 kg.

次回通過

Passes for default location (London). Set your location on the main map for personalized predictions.

高度履歴

Loading altitude history...

軌道要素

1 53603U 22104R 26267.33335648 .00091111 00000-0 45185-2 0 9992
2 53603 53.1615 66.6943 0000350 133.4751 220.9561 15.16966255 5710
Epoch: Sep 24, 2026 • Age: 11 hours

現在のステータス

高度 532.1 km
遠地点 / 近地点 N/A
速度 7.60 km/s
衛星直下点 -49.96°S, 24.18°E
打ち上げ日 Aug 28, 2022
運用期間 4 years
タイプ internet

技術仕様

分類 Payload
質量 300.00 kg
乾燥質量 290.00 kg
長さ 0.20 m
スパン 9.00 m
形状 ? Box + pan
製造者 SPXS
バスタイプ Starlink
フェーズステータス In Orbit
所有者/国 SPXS/US

Most Searched